Flag for Greece Weather past 2 weeks in Iráklion, Crete, Greece

75 °F

Scattered clouds.

Feels Like: 77 °F
Forecast: 72 / 83 °F
Wind: 12 mph from Northeast

Location: Heraklion Airport

Current Time: Oct 10, 2015 at 7:19:38 PM

Latest Report: Oct 10, 2015 at 6:50 PM

Visibility: N/A

Pressure: 30.01 "Hg

Humidity: 69%

Dew point: 64 °F

Location of IráklionLocation

Historic Weather in Iráklion — Graph


Iráklion temperature yesterday

Maximum temperature yesterday: 79 °F (at 4:20 PM)
Minimum temperature yesterday: 66 °F (at 1:50 AM)
Average temperature yesterday: 72 °F

Past Weeks' High & Low Weather Summary

High84 °F (Sep 26, 4:50 PM)94% (Sep 27, 7:20 AM)30.21 "Hg (Sep 27, 7:20 AM)
Low64 °F (Oct 5, 6:50 AM)54% (Sep 26, 10:50 AM)29.80 "Hg (Oct 6, 3:50 PM)
Average73 °F74%29.99 "Hg
* Reported Sep 25 5:20 PM — Oct 10 5:50 PM, Iráklion, Weather by CustomWeather, © 2015

Note: Actual official high and low records may vary slightly from our data, if they occured in-between our weather recording intervals... More about our weather records


Iráklion weather history for previous 24 hours

Time TempWeatherWind HumidityBarometerVisibility
5:50 PM
Sat, Oct 10
75 °FScattered clouds.13 mph78%29.95 "HgN/A
5:20 PM77 °FScattered clouds.13 mph69%29.98 "HgN/A
4:50 PM77 °FScattered clouds.13 mph69%29.98 "HgN/A
4:20 PM77 °FScattered clouds.12 mph69%29.98 "HgN/A
3:50 PM77 °FScattered clouds.10 mph69%29.98 "HgN/A
3:20 PM77 °FScattered clouds.12 mph69%29.98 "HgN/A
2:50 PM77 °FScattered clouds.12 mph69%29.98 "HgN/A
2:20 PM75 °FScattered clouds.10 mph69%29.98 "HgN/A
1:50 PM75 °FScattered clouds.13 mph69%29.98 "HgN/A
1:20 PM75 °FScattered clouds.13 mph69%30.01 "HgN/A
12:50 PM75 °FScattered clouds.10 mph69%30.01 "HgN/A
12:20 PM75 °FScattered clouds.9 mph69%30.01 "HgN/A
11:50 AM75 °FScattered clouds.8 mph69%30.01 "HgN/A
11:20 AM75 °FScattered clouds.8 mph69%30.01 "HgN/A
10:50 AM75 °FScattered clouds.8 mph69%30.01 "HgN/A
10:20 AM70 °FScattered clouds.7 mph73%30.04 "HgN/A
9:50 AM70 °FScattered clouds.6 mph73%30.04 "HgN/A
9:20 AM70 °FScattered clouds.6 mph73%30.04 "HgN/A
8:50 AM70 °FScattered clouds.10 mph73%30.04 "HgN/A
8:20 AM64 °FScattered clouds.9 mph88%30.01 "HgN/A
7:50 AM64 °FPassing clouds.7 mph88%30.01 "HgN/A
7:20 AM64 °FPassing clouds.5 mph88%30.04 "HgN/A
6:50 AM64 °FPassing clouds.8 mph88%30.04 "HgN/A
6:20 AM64 °FPassing clouds.6 mph88%30.01 "HgN/A
5:50 AM64 °FPassing clouds.6 mph88%30.01 "HgN/A
5:20 AM66 °FPassing clouds.7 mph88%30.01 "HgN/A
4:50 AM66 °FPassing clouds.7 mph88%30.01 "HgN/A
4:20 AM66 °FPassing clouds.5 mph88%30.01 "HgN/A
3:50 AM66 °FPassing clouds.6 mph88%30.01 "HgN/A
3:20 AM66 °FPassing clouds.3 mph88%30.01 "HgN/A
2:50 AM66 °FPassing clouds.6 mph88%30.01 "HgN/A
2:20 AM66 °FPassing clouds.5 mph88%30.04 "HgN/A
1:50 AM66 °FPassing clouds.5 mph88%30.04 "HgN/A
1:20 AM66 °FPassing clouds.6 mph88%30.04 "HgN/A
12:50 AM66 °FPassing clouds.6 mph88%30.04 "HgN/A
11:50 PM
Fri, Oct 9
68 °FPassing clouds.5 mph83%30.04 "HgN/A
11:20 PM68 °FPassing clouds.6 mph83%30.04 "HgN/A
10:50 PM68 °FPassing clouds.5 mph83%30.04 "HgN/A
10:20 PM68 °FPassing clouds.5 mph83%30.04 "HgN/A
9:50 PM68 °FPassing clouds.5 mph83%30.04 "HgN/A
9:20 PM72 °FPassing clouds.3 mph73%30.01 "HgN/A
8:50 PM72 °FPassing clouds.No wind73%30.01 "HgN/A
8:20 PM73 °FPassing clouds.3 mph78%30.01 "HgN/A
7:50 PM73 °FPassing clouds.7 mph78%30.01 "HgN/A
7:20 PM75 °FPassing clouds.6 mph74%30.01 "HgN/A
Weather by CustomWeather, © 2015

See weather overviewHow to use our weather pages